Tracking 31027 objects as of 19-Jul-2025
HD Live streaming from Space Station
objects crossing your sky now

BREEZE-M DEB (TANK)

Track BREEZE-M DEB (TANK) now!
10-day predictions


NORAD ID: 36133
Int'l Code: 2009-075C
Perigee: 479.5 km
Apogee: 14,801.0 km
Inclination: 45.8 °
Period: 275.1 minutes
Semi major axis: 14011 km
RCS: 6.9327 m2 (large)
Launch date: December 29, 2009
Source: Commonwealth of Independent States (former USSR) (CIS)
Launch site: TYURATAM MISSILE AND SPACE COMPLEX (TTMTR)

Note: This is SATELLITE DEBRIS
Your satellite tracking list
BELINTERSAT 1
Track 1 satellite(s)




NASA's NSSDC Master Catalog

Two Line Element Set (TLE):
1 36133U 09075C   25199.28584319  .00000354  00000-0  45537-3 0  9992
2 36133  45.8225 142.7417 5110735  33.1458 350.3870  5.23466308295397
Source of the keplerian elements: AFSPC